Weather Roundup
Issued by NWS Chicago, IL

Home | Current Version | Previous Version | Graphics & Text | Print | Product List | Glossary On
Versions: 1 2 3 4 5 6 7 8 9 10 11 12 13 14 15 16 17 18 19 20 21 22 23 24 25 26 27 28 29 30 31 32 33 34 35 36 37 38 39 40 41 42 43 44 45 46 47 48 49 50
000
NZUS59 KLOT 180010
HRRLOT

CHICAGO AREA WEATHER ROUNDUP
NATIONAL WEATHER SERVICE CHICAGO/ROMEOVILLE IL
700 PM CDT THU APR 17 2014

NOTE: "FAIR" INDICATES FEW OR NO CLOUDS BELOW 12,000 FEET WITH NO
SIGNIFICANT WEATHER AND/OR OBSTRUCTIONS TO VISIBILITY.

* THESE STATIONS ARE NOT UNDER NWS QUALITY CONTROL. THEY ALSO MAY NOT
  REPORT WEATHER SUCH AS PRECIPITATION OR FOG.

ILZ005-006-012>014-019>023-180100-
NORTHEAST ILLINOIS

CITY           SKY/WX    TMP DP  RH WIND       PRES   REMARKS
OHARE          CLOUDY    57  36  45 W12       30.20S
6HR MIN TEMP:  57; 6HR MAX TEMP:  62;

MIDWAY         CLOUDY    58  39  49 W9        30.21R
6HR MIN TEMP:  58; 6HR MAX TEMP:  63;

AURORA         CLOUDY    55  38  52 SW8       30.22R
6HR MIN TEMP:  55; 6HR MAX TEMP:  59;

LANSING*       CLOUDY    58  37  46 W8        30.21S
JOLIET*        CLOUDY    56  37  49 W6        30.23S
WAUKEGAN       MOCLDY    50  38  63 E6        30.20R
6HR MIN TEMP:  50; 6HR MAX TEMP:  59;

DUPAGE AIRPORT CLOUDY    55  38  52 SW9       30.21R
6HR MIN TEMP:  55; 6HR MAX TEMP:  61;

WHEELING       MOCLDY    58  38  47 SW6       30.22R
6HR MIN TEMP:  58; 6HR MAX TEMP:  62;

KANKAKEE*      CLOUDY    57  43  58 W8        30.23R
MORRIS*        CLOUDY    57  34  41 W8        30.22S
LEWIS AIRPORT* CLOUDY    56  38  52 W8        30.22S
NORTHERLY IS     N/A     59  37  44 W7          N/A
$$

WIZ051-052-058>065-066-070>072-180100-
SOUTHEAST WISCONSIN

CITY           SKY/WX    TMP DP  RH WIND       PRES   REMARKS
MILWAUKEE      MOCLDY    55  36  48 W3        30.22S
6HR MIN TEMP:  51; 6HR MAX TEMP:  56;

KENOSHA*       MOCLDY    53  38  56 W7        30.20S
RACINE*        PTCLDY    54  38  54 W5        30.22S
BURLINGTON     PTCLDY    52  38  58 W5        30.21R
WAUKESHA       PTCLDY    52  37  58 W12       30.21S
WEST BEND      MOCLDY    52  34  50 W6        30.20S
$$

INZ001>003-010>013-019-020-180100-
NORTHWEST INDIANA

CITY           SKY/WX    TMP DP  RH WIND       PRES   REMARKS
GARY*          CLOUDY    61  36  39 W10       30.21R
MICHIGAN CITY* NOT AVBL
RENSSELAER*    NOT AVBL
VALPARAISO     CLOUDY    58  38  47 W10       30.21S
$$

LMZ740>746-180100-
SOUTHERN LAKE MICHIGAN

STATION/POSITION TIME  SKY/WX   TEMP WIND        PRES    VSBY
                                AIR  DIR/SP/G
                 (UTC)          (F)  (DEG/KT/KT) (MB)    (MI)
HARRISON CRIB    0000            59  250/ 11/ 14   N/A
BURNHAM HARBOR   0000            58  260/  6/ 12   N/A
CALUMET HARBOR   0000            60  220/  5/ 12 1023.4R
BURNS HARBOR     NOT AVBL
MICHIGAN CITY    0000            51  350/  2/  2   N/A
$$

ABBREVIATIONS USED IN REMARKS
   TC - TEMPERATURE IN CELSIUS
  WCI - WIND CHILL INDEX
   HX - HEAT INDEX
  VSB - VISIBILITY
$$


USA.gov is the U.S. government's official web portal to all federal, state and local government web resources and services.